Location: Laterina
(43.5167°N, 11.7167°E)
Time: 11:48:36
(UTC+00:00)

Cosmos 1634 Rocket - Visible Passes

Search period start: 16 January 2021 00:00
Search period end: 26 January 2021 00:00
Orbit: 959 x 993 km, 82.9° (Epoch: 15 January)

Date Brightness Start Highest point End Pass type
(mag) Time Alt. Az. Time Alt. Az. Time Alt. Az.
16 Jan 4.9 05:35:41 10° SSE 05:41:37 52° E 05:47:35 10° NNE visible
16 Jan 4.3 16:30:08 10° N 16:36:06 46° ENE 16:42:05 10° SSE visible
16 Jan 5.9 18:16:02 10° NNW 18:21:13 28° W 18:26:25 10° SW visible
17 Jan 6.9 04:19:43 10° ESE 04:22:37 14° ENE 04:25:30 10° NE visible
17 Jan 4.0 06:00:53 10° S 06:07:03 88° W 06:13:16 10° N visible
17 Jan 4.0 16:55:30 10° N 17:01:45 81° E 17:08:02 10° S visible
17 Jan 6.8 18:42:48 10° NW 18:46:19 16° W 18:49:50 10° WSW visible
18 Jan 6.2 04:42:47 10° SE 04:47:41 25° E 04:52:34 10° NNE visible
18 Jan 4.7 17:21:08 10° NNW 17:27:14 58° W 17:33:21 10° S visible
19 Jan 5.1 05:07:07 10° SSE 05:12:54 45° E 05:18:43 10° NNE visible
19 Jan 5.8 17:47:05 10° NNW 17:52:32 33° W 17:58:00 10° SSW visible
20 Jan 7.0 03:52:06 10° E 03:54:00 11° ENE 03:55:54 10° ENE visible
20 Jan 4.1 05:32:09 10° S 05:38:17 81° E 05:44:30 10° N visible
20 Jan 6.7 18:13:36 10° NW 18:17:41 18° W 18:21:47 10° WSW visible
21 Jan 6.3 04:14:29 10° SE 04:19:00 22° E 04:23:33 10° NE visible
21 Jan 4.0 05:57:49 10° SSW 06:03:52 58° WNW 06:09:58 10° N visible
21 Jan 4.5 16:52:18 10° NNW 16:58:30 68° W 17:04:43 10° S visible
22 Jan 5.4 04:38:34 10° SSE 04:44:11 39° E 04:49:51 10° NNE visible
22 Jan 5.6 17:18:10 10° NNW 17:23:51 38° W 17:29:33 10° SSW visible
23 Jan 4.3 05:03:26 10° S 05:09:32 70° E 05:15:42 10° NNE visible
23 Jan 6.5 17:44:30 10° NW 17:49:02 21° W 17:53:35 10° SW visible
24 Jan 6.5 03:46:15 10° ESE 03:50:21 19° E 03:54:28 10° NE visible
24 Jan 3.9 05:28:57 10° SSW 05:35:04 67° W 05:41:15 10° N visible
24 Jan 7.1 18:12:16 10° WNW 18:14:02 11° WNW 18:15:49 10° W visible
25 Jan 5.6 04:10:05 10° SSE 04:15:29 34° E 04:20:57 10° NNE visible
25 Jan 4.4 05:55:06 10° SW 06:00:46 38° WNW 06:06:30 10° N visible
25 Jan 5.4 16:49:16 10° NNW 16:55:09 44° W 17:01:03 10° SSW visible
